Hourly Data Report for October 31, 2013

All times are specified in Local Standard Time (LST). Add 1 hour to adjust for Daylight Saving Time where and when it is observed.

OTTAWA INTL A
ONTARIO

45°19'00.000" N
75°40'00.000" W
114.90 m
6106001
71628
YOW

Related Data

No related data is available for this station

Download Data

Hourly Data (October 2013)
Hourly Data Report for October 31, 2013
Temp Definition
°C
Dew Point Temp Definition
°C
Rel Hum Definition
%
Wind Dir Definition
10's deg

Wind Spd Definition
km/h
Visibility Definition
km
Stn Press Definition
kPa
Hmdx Definition


Wind Chill Definition


Weather Definition


TIME
00:00 Legend Double Dagger 1.4 1.1 98 15 8 11.3 100.64     Fog
01:00 Legend Double Dagger 1.4 1.0 97 16 10 11.3 100.58     Clear
02:00 Legend Double Dagger 1.8 1.4 97 10 10 9.7 100.52     Fog
03:00 Legend Double Dagger 2.7 2.3 97 9 9 9.7 100.43     Fog
04:00 Legend Double Dagger 1.7 1.4 98 6 13 1.6 100.29     Fog
05:00 Legend Double Dagger 1.5 1.2 98 7 11 2.4 100.26     Fog
06:00 Legend Double Dagger 1.5 1.2 98 8 18 4.8 100.14     Fog
07:00 Legend Double Dagger 2.0 1.4 96 7 14 8.1 100.08     Fog
08:00 Legend Double Dagger 2.8 2.1 95 7 12 8.1 100.02     Fog
09:00 Legend Double Dagger 3.5 2.5 93 6 12 9.7 99.92     Rain,Fog
10:00 Legend Double Dagger 4.1 3.5 96 9 20 4.8 99.66     Rain,Fog
11:00 Legend Double Dagger 5.7 5.1 96 10 10 4.0 99.60     Rain,Fog
12:00 Legend Double Dagger 5.8 5.4 97 8 13 1.6 99.37     Rain,Fog
13:00 Legend Double Dagger 7.0 6.7 98 11 12 2.0 99.18     Rain,Fog
14:00 Legend Double Dagger 12.3 12.0 98 20 18 6.4 99.07     Rain,Fog
15:00 Legend Double Dagger 13.8 13.0 95 19 22 9.7 99.00     Rain,Fog
16:00 Legend Double Dagger 14.0 13.1 94 20 23 8.1 99.00     Rain,Fog
17:00 Legend Double Dagger 14.1 13.2 94 19 23 9.7 98.92     Rain,Fog
18:00 Legend Double Dagger 14.3 13.2 93 18 22 12.9 98.78     Rain
19:00 Legend Double Dagger 14.6 13.5 93 18 25 12.9 98.69     Cloudy
20:00 Legend Double Dagger 14.7 13.6 93 19 23 12.9 98.62     LegendNANA
21:00 Legend Double Dagger 14.7 13.6 93 19 27 11.3 98.53     Rain
22:00 Legend Double Dagger 14.6 13.7 94 19 25 12.9 98.41     Rain
23:00 Legend Double Dagger 14.8 13.7 93 18 26 11.3 98.26     LegendNANA

Notes on Data Quality.

Legend

  • E = Estimated
  • M = Missing
  • NA = Not Available
  • ‡ = Partner data that is not subject to review by the National Climate Archives
Date modified: